Content
SEND FEEDBACK

Daily
Averages
Monthly
Summary
United States of America

FAYETTEVILLE, TENNESSEE


Home > North America > United States > Tennessee
Elevation: 700 feet     Latitude: 35 10N     Longitude: 086 33W

WEATHER
 
SELECT A DAY
Number of Records: 309,325;   Date Range: 4/22/02 - 12/16/14
 
SHARE

PRINT THIS DATA

[ ← Previous Day ]
WEATHER ALMANAC - JANUARY 12, 2014
[ Next Day → ]
[ °C ]   °F
Weather ElementAverageHighLow
Temperature41.2 °F57.2 °F (2:55 pm)30.2 °F (4:15 am)
Dewpoint28.7 °F37.4 °F (8:55 am)21.2 °F (2:55 pm)
Humidity67.1 %100 % (8:15 am)25 % (2:55 pm)
Barometer30.09 in30.17 in (8:55 am)30.00 in (12:55 am)
Wind Speed2.2 mph10.4 mph (2:15 pm)
Wind Gust16.1 mph (2:15 pm)
Weather ElementAverage
Visibility9.3 mi
Wind DirectionENE (71.9 °)

Weather ElementTotal
Precipitation---
Heating Degree Days21.3 (Base 65)
Averaged from 69 records on January 12, 2014
WEATHER CONDITIONS BREAKOUT
WIND DIRECTION BREAKOUT
WEATHER BY HOUR - JANUARY 12, 2014
[ °C ]   °F
Local TimeTemperatureDewpointHumidityBarometerVisibilityWind DirectionWind SpeedGust SpeedPrecipitationEventsConditions
12:35 AM33.8 °F32.0 °F93 %30.01 in10.0 miCalmClear
12:55 AM33.8 °F32.0 °F93 %30.00 in10.0 miCalmClear
1:15 AM33.8 °F32.0 °F93 %30.00 in10.0 miCalmClear
1:35 AM33.8 °F32.0 °F93 %30.01 in10.0 miCalmClear
1:55 AM32.0 °F30.2 °F93 %30.02 in10.0 miCalmClear
2:15 AM32.0 °F30.2 °F93 %30.02 in10.0 miCalmClear
2:35 AM32.0 °F30.2 °F93 %30.03 in10.0 miCalmClear
2:55 AM32.0 °F30.2 °F93 %30.03 in10.0 miCalmClear
3:15 AM32.0 °F30.2 °F93 %30.04 in10.0 miCalmClear
3:35 AM32.0 °F30.2 °F93 %30.03 in10.0 miCalmClear
3:55 AM32.0 °F30.2 °F93 %30.04 in10.0 miCalmClear
4:15 AM30.2 °F28.4 °F93 %30.05 in10.0 miCalmClear
4:35 AM30.2 °F28.4 °F93 %30.05 in10.0 miCalmClear
4:55 AM30.2 °F28.4 °F93 %30.06 in7.0 miCalmClear
5:15 AM30.2 °F28.4 °F93 %30.07 in5.0 miCalmClear
5:35 AM30.2 °F28.4 °F93 %30.08 in10.0 miCalmClear
5:55 AM30.2 °F28.4 °F93 %30.09 in7.0 miCalmClear
6:15 AM30.2 °F28.4 °F93 %30.10 in7.0 miCalmClear
6:35 AM30.2 °F28.4 °F93 %30.10 in2.5 miCalmClear
6:55 AM30.2 °F28.4 °F93 %30.11 in3.0 miCalmClear
7:15 AM30.2 °F28.4 °F93 %30.12 in1.8 miCalmMist
7:35 AM30.2 °F28.4 °F93 %30.13 in5.0 miCalmClear
7:55 AM32.0 °F30.2 °F93 %30.14 in5.0 miCalmClear
8:15 AM32.0 °F32.0 °F100 %30.14 in10.0 miCalmClear
8:35 AM33.8 °F33.8 °F100 %30.16 in10.0 miCalmClear
8:55 AM37.4 °F37.4 °F100 %30.17 in10.0 miCalmClear
9:15 AM41.0 °F33.8 °F76 %30.17 in10.0 miCalmClear
9:35 AM42.8 °F33.8 °F70 %30.17 in10.0 miCalmClear
9:55 AM44.6 °F33.8 °F66 %30.17 in10.0 miCalmClear
10:15 AM44.6 °F33.8 °F66 %30.17 in10.0 miSouth (170°)3.5 mphClear
10:35 AM46.4 °F33.8 °F62 %30.17 in10.0 miCalmClear
10:55 AM46.4 °F33.8 °F62 %30.16 in10.0 miSSW (200°)3.5 mphClear
11:15 AM50.0 °F32.0 °F50 %30.15 in10.0 miSouth (190°)4.6 mphClear
11:35 AM50.0 °F30.2 °F47 %30.14 in10.0 miSouth (190°)4.6 mphClear
11:55 AM51.8 °F30.2 °F44 %30.13 in10.0 miSSW (200°)6.9 mphClear
12:15 PM51.8 °F28.4 °F41 %30.12 in10.0 miSouth (190°)6.9 mphClear
12:35 PM53.6 °F26.6 °F35 %30.11 in10.0 miSSW (200°)6.9 mphClear
12:55 PM53.6 °F26.6 °F35 %30.09 in10.0 miSW (220°)8.1 mphClear
1:15 PM53.6 °F23.0 °F30 %30.09 in10.0 miSouth (190°)8.1 mphClear
1:35 PM55.4 °F23.0 °F29 %30.09 in10.0 miSouth (180°)6.9 mphClear
1:55 PM55.4 °F23.0 °F29 %30.09 in10.0 miSouth (180°)8.1 mphClear
2:15 PM55.4 °F23.0 °F29 %30.09 in10.0 miSouth (180°)10.4 mph16.1 mphClear
2:35 PM55.4 °F23.0 °F29 %30.08 in10.0 miSSE (160°)5.8 mphClear
2:55 PM57.2 °F21.2 °F25 %30.08 in10.0 miSouth (180°)6.9 mphClear
3:15 PM57.2 °F21.2 °F25 %30.07 in10.0 miSSE (160°)9.2 mphClear
3:35 PM57.2 °F21.2 °F25 %30.07 in10.0 miSouth (180°)5.8 mphClear
4:35 PM55.4 °F23.0 °F29 %30.08 in10.0 miSouth (190°)5.8 mphClear
4:55 PM53.6 °F21.2 °F28 %30.08 in10.0 miSSE (160°)3.5 mphClear
5:15 PM51.8 °F23.0 °F33 %30.09 in10.0 miSouth (170°)3.5 mphClear
5:35 PM50.0 °F24.8 °F37 %30.09 in10.0 miSSE (160°)3.5 mphClear
5:55 PM50.0 °F24.8 °F37 %30.09 in10.0 miSouth (170°)3.5 mphClear
6:15 PM46.4 °F26.6 °F46 %30.09 in10.0 miSouth (170°)4.6 mphClear
6:35 PM42.8 °F30.2 °F61 %30.09 in10.0 miSSE (150°)3.5 mphClear
6:55 PM46.4 °F24.8 °F43 %30.09 in10.0 miSE (140°)3.5 mphClear
7:15 PM39.2 °F32.0 °F75 %30.09 in10.0 miCalmClear
7:35 PM37.4 °F30.2 °F75 %30.10 in10.0 miCalmClear
7:55 PM39.2 °F28.4 °F65 %30.09 in10.0 miCalmClear
8:15 PM42.8 °F28.4 °F57 %30.09 in10.0 miSE (140°)3.5 mphClear
8:35 PM37.4 °F32.0 °F81 %30.09 in10.0 miCalmClear
8:55 PM37.4 °F28.4 °F70 %30.09 in10.0 miCalmClear
9:15 PM37.4 °F28.4 °F70 %30.09 in10.0 miCalmClear
9:35 PM37.4 °F28.4 °F70 %30.09 in10.0 miCalmClear
9:55 PM37.4 °F28.4 °F70 %30.08 in10.0 miCalmClear
10:15 PM35.6 °F30.2 °F81 %30.08 in10.0 miCalmClear
10:35 PM37.4 °F30.2 °F75 %30.08 in10.0 miSSW (210°)3.5 mphClear
10:55 PM42.8 °F28.4 °F57 %30.08 in10.0 miCalmClear
11:15 PM46.4 °F30.2 °F53 %30.07 in10.0 miSSE (150°)3.5 mphClear
11:35 PM44.6 °F28.4 °F53 %30.06 in10.0 miCalmClear
11:55 PM46.4 °F28.4 °F50 %30.06 in10.0 miSouth (180°)4.6 mphClear
Hourly data recorded from KMDQ, located miles away from Fayetteville, Tennessee







STORIES FROM OUR PARTNERS